LogoCoinalyze
    Ad-Free Version ホーム マーケット一覧 資金調達率一覧
    先物データ
    • 集計データ (コイン一覧)
    • 個別チャート
    • 全体チャート
    アラート
    TA
    Bitcoin Ethereum BNB Ripple Tron ZCash Dogecoin Monero Chainlink UNUS SED LEO Cardano Stellar Lumens Bitcoin Cash Litecoin Hedera Cronos Polkadot Ethereum Classic Algorand Cosmos Quant Dash VeChain Bitcoin SV BitTorrent Terra Decred Tezos The Graph Iota THETA Decentraland NEO Chiliz MultiversX Horizen Golem Basic Attention Token Qtum DigiByte 0x Beam RIF Token FTX Token FUNToken Holo Ontology Zilliqa Enjin Coin Nano Ravencoin aelf Verge Mask Network Siacoin Status WINk Waves IoTeX Power Ledger iExec RLC Steem Kyber Network Crystal Ark Lisk Ardor WOO Network IOST WAX Icon Storj Wanchain Loopring Bitcoin Diamond AdEx Bitcoin Gold Augur OmiseGO NEM MonaCoin BitShares Ren Komodo V Systems Nuls Mithril SOLVE Maker Aion EOS Nebulas HedgeTrade Waltonchain Bytom Polygon Metaverse ETP TomoChain GXChain Fetch.ai MaidSafeCoin Fantom Bread QASH
    注文する:
    その他
    • API
    • ローソク足パターン
    • 寄付する
    • お問い合わせ
    • サイトマップ
    • Privacy Policy
    • Disclaimer
    • Theme:
    日本語
    • English
    • Français
    • Русский
    • Deutsch
    • Türkçe
    • Nederlands
    • Português (BR)
    • Español
    • 한국어
    • 简体中文
     
    ログイン / サインアップ
    Markets/ Pepe/ PEPE to USD/ PEPEUSD Kraken
    Trades
    WL
    チャット
    統計
    ニュース
    ⦷
    AAA
    0.000003681 1739715534.95163012 11:52:53
    0.000003681 7205235.06000000 11:52:53
    0.000003681 649650312.76892996 11:52:53
    0.000003681 37968700.00000000 11:52:53
    0.000003682 161586564.61577001 11:52:53
    0.000003682 88661217.07077999 11:52:53
    0.000003682 143104180.56680000 11:52:53
    0.000003682 37968700.00000000 11:52:53
    0.000003683 158998521.31375000 11:52:53
    0.000003683 2440486328.74362993 11:52:53
    0.000003683 203600029.61151999 11:52:53
    0.000003683 37968700.00000000 11:52:53
    0.000003684 27144408.25190000 11:52:53
    0.000003684 203565686.33529001 11:52:53
    0.000003684 592672413.79999995 11:52:53
    0.000003684 37968700.00000000 11:52:53
    0.000003685 37968700.00000000 11:52:53
    0.000003686 417353.57000000 11:51:24
    0.000003687 79971108.01220000 11:51:10
    0.000003687 835675.00000000 11:50:42
    0.000003688 680424.00000000 11:50:36
    0.000003688 292842.00000000 11:50:15
    0.000003690 348197.34000000 11:50:13
    0.000003687 560182.00000000 11:48:31
    0.000003692 35382813.77000001 11:47:54
    0.000003689 6547736.51000000 11:47:26
    0.000003690 537200.00000000 11:46:34
    0.000003688 433194.00000000 11:45:41
    0.000003690 311761.51000000 11:45:32
    0.000003688 534021.00000000 11:45:28
    0.000003691 386951.00000000 11:45:18
    0.000003692 608152.76000000 11:45:09
    0.000003690 1129262.00000000 11:44:47
    0.000003689 423333.00000000 11:44:08
    0.000003691 577377.40000000 11:43:46
    0.000003689 18885813.00000000 11:43:42
    0.000003689 2333983.73000000 11:43:35
    0.000003689 3098481.56000000 11:43:34
    0.000003690 904908797.41132987 11:43:33
    0.000003690 37968700.00000000 11:43:33
    0.000003690 176569948.00000000 11:43:33
    0.000003689 161586564.61577001 11:43:33
    0.000003689 37968700.00000000 11:43:33
    0.000003690 430225051.19317001 11:43:21
    0.000003690 10894771.13000000 11:43:21
    0.000003690 226645000.00000000 11:43:21
    0.000003690 509495400.00000000 11:43:21
    0.000003690 270235398.41000003 11:43:21
    0.000003690 161586564.61577001 11:43:21
    0.000003690 158998521.31375000 11:43:21
    0.000003690 37968700.00000000 11:43:21
    0.000003689 157810449.97152001 11:43:21
    0.000003689 203311126.11375999 11:43:21
    0.000003689 8566413.99999000 11:43:21
    0.000003689 37968700.00000000 11:43:21
    0.000003688 37968700.00000000 11:43:21
    0.000003689 406107.00000000 11:42:54
    0.000003689 486087.00000000 11:42:08
    0.000003690 574526.00000000 11:42:05
    0.000003695 5179648.17000000 11:40:45
    0.000003692 37968700.00000000 11:40:31
    0.000003692 15555863.00000000 11:38:44
    0.000003695 10000000.00000000 11:38:43
    0.000003695 10000000.00000000 11:38:41
    0.000003692 9156891.41000000 11:38:34
    0.000003690 405574.00000000 11:38:09
    0.000003687 8566449.68000000 11:37:01
    0.000003689 948726.97000000 11:36:37
    0.000003690 17549905.12000000 11:36:31
    0.000003687 37968700.00000000 11:35:59
    0.000003680 8566414.00000000 11:34:00
    0.000003685 59758113.97558000 11:33:04
    0.000003685 37968700.00000000 11:33:04
    0.000003684 37968700.00000000 11:33:04
    0.000003683 6095954.38000000 11:31:58
    0.000003679 27184827.89854000 11:31:23
    0.000003680 275750406.54000002 11:31:01
    0.000003684 329431.00000000 11:28:45
    0.000003686 3018349.61000000 11:28:39
    0.000003683 10000000.00000000 11:28:13
    0.000003681 3766395.00000000 11:28:07
    0.000003680 122353908.64278001 11:28:03
    0.000003680 27173913.04347000 11:28:03
    0.000003680 158998521.31375000 11:28:03
    0.000003680 32837394.00000000 11:28:03
    0.000003680 5131306.00000000 11:28:02
    0.000003683 2887901.03000000 11:26:58
    0.000003682 11788829.16480000 11:26:42
    0.000003682 37968700.00000000 11:26:42
    0.000003681 189521332.59788001 11:26:42
    0.000003681 139925907.50529000 11:26:42
    0.000003681 37968700.00000000 11:26:42
    0.000003680 85988120.39999001 11:26:42
    0.000003680 165990073.84999999 11:26:42
    0.000003680 115387892.00000000 11:26:42
    0.000003680 37968700.00000000 11:26:42
    0.000003679 450961522.48892999 11:26:42
    0.000003677 771848.00000000 11:26:25
    0.000003674 13148938.48000000 11:25:23
    0.000003674 141710891.31107000 11:24:02
    ログアウト
    AAA
    ヘルプ
    🙂 🤣 😎 🤗 😛 😉 😜 🤑 🤔 😑 😴 😕 🙃 😲 😇 🙁 😢 😬 😟 😠 🕺 🏃 💪 ✌ 👌 👍 👎 👏 👋 🤝 🍺 🍻 🐋 🐟 🦈 🗽 🚄 ✈ 🛑 🚀 🏦 🌚 ⭐ 🌞 ⚡ 🏆 💰 💲 🔨 ❓ ❗ 💯 🔶 🏁
    ☺
    ログイン または サインアップ してチャット
    24時間
    変化
    +5.78%
    出来高
    1,061,584,547,944
    最高値
    0.000003876
    最安値
    0.000003472
    7日間
    変化
    -5.49%
    出来高
    3,726,281,531,071
    最高値
    0.000003966
    最安値
    0.000003363
    30日間
    変化
    +27.64%
    出来高
    15,626,560,808,720
    最高値
    0.000004550
    最安値
    0.000002530
    DOGE, SHIB, PEPE, or Something Else: Which Meme Coin Can Make History in September? (3 AIs Weigh In)
    "DOGE remains the most likely to record the largest move in dollar terms and lead the entire sector," ChatGPT stated.
    cryptopotato.com
    Sept 3, 2026 00:41
    Pepe price rallies 25% as whale demand and futures interest surge
    Key takeaways Pepe has gained 25% this week, including a combined 22% advance over the previous two days. Seven whale transactions worth more than $1 million each occurred Thursday, the highest...
    coinjournal.net
    Aug 21, 2026 08:41
    PEPE Supply on Exchanges Just Took a Massive Hit – What’s Next?
    A drop in PEPE exchange balances has added to bullish expectations despite muted trader interest.
    cryptopotato.com
    Aug 6, 2026 20:02
    PEPE Exchange Outflows Hit Nearly 2-Year High as Whales Accumulate
    Pepe (PEPE) recorded its largest single-day exchange outflow since November 2024, with 4.54 trillion tokens leaving trading platforms, signaling that holders are moving supply away from immediate...
    beincrypto.com
    Aug 6, 2026 04:57
    Meme Coin Based on White House Shooter Conspiracy Rallies 320%
    $HENRY surged 300% after a 2023 Pepe tweet appeared to name the White House shooter, fueling a viral time-travel meme. The post Meme Coin Based on White House Shooter Conspiracy Rallies 320%...
    beincrypto.com
    Apr 27, 2026 16:11
    PEPE surges 4% as market sentiment improves, eyes Key resistance breakout
    Key takeaways Pepe extends gains on Wednesday, stretching its rally from the 50-day EMA. Derivatives data show heightened retail activity as risk-on sentiment returns to the market. Pepe (PEPE) is...
    coinjournal.net
    Apr 22, 2026 11:44
    Why The PEPE Price Could Stage A 55X Rally To Reach New $0.0001 ATH
    The PEPE price has now started to edge back into bullish conversations after the recent inflows into the crypto market. The last time PEPE’s weekly chart printed the kind of structure now...
    newsbtc.com
    Apr 21, 2026 15:30
    Pepe (PEPE) surges 9%, drawing interest from whales
    Key takeaways PEPE is up 9% in the last 24 hours, making it one of the best performers among the top 50 cryptocurrencies by market cap. The rally comes amid renewed interest from whales and retail...
    coinjournal.net
    Apr 16, 2026 07:40
    Murad Says SPX6900 (SPX) Is Primed for a Rally — Is He Right This Time?
    Crypto influencer Murad Mahmudov claims SPX6900 (SPX) is stabilizing at the same market cap level where Dogecoin (DOGE) and Pepe (PEPE) consolidated before their explosive rallies. The...
    beincrypto.com
    Apr 5, 2026 21:36
    The Shiba Inu Of This Cycle: Analyst Shares Why It Is Better To Buy PEPE Now
    In the bull market cycle of 2021-2022, the Shiba Inu meme coin made waves in a way that changed the face of meme coins forever. This came after Dogecoin’s initial 36,000% rally, and Shiba Inu...
    newsbtc.com
    Apr 4, 2026 07:30
    PEPE Explodes by 18% Amid Altcoin Rally, BTC Tapped $74K: Market Watch
    The frog-themed meme coin is today's biggest gainer, followed by TAO, DOT, and BONK.
    cryptopotato.com
    Mar 16, 2026 10:56
    Should PEPE traders brace for volatility as short squeeze potential builds?
    The memecoin market has seen its collective market capitalization drop by 48% over the past year, and 6.9% over the past month, according to CoinMarketCap. According to Glassnode, the memecoin...
    ambcrypto.com
    Mar 7, 2026 18:00
    チャットでコマンドを入力するだけです。 nick1を実際のニックネームに置き換えてください
    • /ignore nick1 チャットユーザーを無視する
    • /unignore nick1 チャットユーザーを無視しない
    • /ignorelist 無視したチャットユーザーを表示する